Regional Weather Roundup
Issued by NWS

Home | Current Version | Previous Version | Text Only | Print | Product List | Glossary On
Versions: 1 2 3 4 5 6 7 8 9 10 11 12 13 14 15 16 17 18 19 20 21 22 23 24 25 26 27 28 29 30 31 32 33 34 35 36 37 38 39 40 41 42 43 44 45 46 47 48 49 50
000
ASUS43 KLSX 241807
RWRMO

WEATHER SUMMARY FOR MISSOURI
NATIONAL WEATHER SERVICE SPRINGFIELD MO
1200 PM CST FRI FEB 24 2017

NOTE: "FAIR" INDICATES FEW OR NO CLOUDS BELOW 12,000 FEET WITH NO
       SIGNIFICANT WEATHER AND/OR OBSTRUCTIONS TO VISIBILITY.
       CURRENT SKY AND/OR WEATHER CONDITIONS ARE NOT AVAILABLE FOR
       CHILLICOTHE AND FARMINGTON.

MOZ001>031-035>038-043-044-053-054-241900-
...NORTHERN AND WESTERN MISSOURI...

CITY           SKY/WX    TMP DP  RH WIND       PRES   REMARKS
KANSAS CTY INT MIX PCPN  37  31  78 NW14      29.72R WCI  28
6HR MIN TEMP:  37; 6HR MAX TEMP:  39; 6HR PCP: TRACE;

KANSAS C DTWN  CLOUDY    42  34  73 NW14G21   29.71R
6HR MIN TEMP:  39; 6HR MAX TEMP:  42; 6HR PCP: TRACE;

LEE`S SUMMIT   CLOUDY    40  35  83 W14G23    29.70R
6HR MIN TEMP:  38; 6HR MAX TEMP:  41; 6HR PCP: TRACE;

ST JOSEPH      MIX PCPN  33  32  96 NW21      29.74R FOG     WCI  21
6HR MIN TEMP:  33; 6HR MAX TEMP:  38; 6HR PCP: TRACE;

CHILLICOTHE      N/A     41  34  76 NW9       29.66R
6HR MIN TEMP:  40; 6HR MAX TEMP:  45;

KIRKSVILLE     CLOUDY    40  36  86 W12       29.61R
6HR MIN TEMP:  39; 6HR MAX TEMP:  41;


$$
MOZ066>068-077>081-088>096-101>105-241900-
...SOUTHWEST MISSOURI...

CITY           SKY/WX    TMP DP  RH WIND       PRES   REMARKS
SPRINGFIELD    CLOUDY    42  34  73 W17G24    29.74R
6HR MIN TEMP:  41; 6HR MAX TEMP:  49;

JOPLIN         PTSUNNY   45  30  55 W18G28    29.80R
6HR MIN TEMP:  39; 6HR MAX TEMP:  46;

BRANSON        CLOUDY    45  37  76 NW10G18   29.75R

$$
MOZ032>034-039>042-045>050-055>058-069>072-241900-
...CENTRAL MISSOURI...

CITY           SKY/WX    TMP DP  RH WIND       PRES   REMARKS
COLUMBIA       CLOUDY    46  38  73 W16       29.65R
6HR MIN TEMP:  46; 6HR MAX TEMP:  50;

JEFFERSON CITY CLOUDY    48  37  65 W20       29.66R
6HR MIN TEMP:  46; 6HR MAX TEMP:  51;

ROLLA          LGT RAIN  49  39  68 W20G25    29.64R
6HR MIN TEMP:  47; 6HR MAX TEMP:  60; 6HR PCP: TRACE;

SEDALIA        CLOUDY    43  33  68 W17G25    29.70R
6HR MIN TEMP:  43; 6HR MAX TEMP:  46;

WHITEMAN AFB   CLOUDY    42  38  85 W17       29.69R
WARRENSBURG    CLOUDY    41  32  70 W18G25    29.70S
OSAGE BEACH    CLOUDY    45  35  68 W14G22    29.70R

$$
MOZ051-052-059>065-241900-
...EAST CENTRAL MISSOURI...

CITY           SKY/WX    TMP DP  RH WIND       PRES   REMARKS
ST LOUIS INTL  CLOUDY    54  45  71 W18G24    29.59R
6HR MIN TEMP:  53; 6HR MAX TEMP:  67;

SPIRIT OF STL  CLOUDY    53  45  74 W15G25    29.59R
6HR MIN TEMP:  52; 6HR MAX TEMP:  65;

ST CHARLES     CLOUDY    52  44  74 W18       29.58R
6HR MIN TEMP:  52; 6HR MAX TEMP:  64;


$$
MOZ072>076-082>087-097>100-106>115-241900-
...SOUTH CENTRAL AND SOUTHEAST MISSOURI...

CITY           SKY/WX    TMP DP  RH WIND       PRES   REMARKS
CAPE GIRARDEAU CLOUDY    67  54  63 SW13G23   29.59S
6HR MIN TEMP:  61; 6HR MAX TEMP:  68;

FARMINGTON     CLOUDY    63  53  70 W9        29.58R
6HR MIN TEMP:  59; 6HR MAX TEMP:  65;

POPLAR BLUFF   CLOUDY    68  58  70 SW23G29   29.61R
6HR MIN TEMP:  60; 6HR MAX TEMP:  68;

WEST PLAINS      N/A     53  43  68 NW14      29.68R
6HR MIN TEMP:  51; 6HR MAX TEMP:  62;


$$


USA.gov is the U.S. government's official web portal to all federal, state and local government web resources and services.